Tracking 25710 objects as of 6-Jul-2022
HD Live streaming from Space Station
objects crossing your sky now

FENGYUN 1C DEB

Track FENGYUN 1C DEB now!
10-day predictions


NORAD ID: 30403
Int'l Code: 1999-025ADS
Perigee: 808.9 km
Apogee: 938.7 km
Inclination: 99.1 °
Period: 102.3 minutes
Semi major axis: 7244 km
RCS: 0.0223 m2 (small)
Launch date: May 10, 1999
Source: People's Republic of China (PRC)
Launch site: Taiyaun Space Center, China (TSC)

Note: This is SATELLITE DEBRIS
aabbcc
Your satellite tracking list
Your tracking list is empty




NASA's NSSDC Master Catalog

Two Line Element Set (TLE):
1 30403U 99025ADS 22186.82414023  .00001364  00000-0  80114-3 0  9999
2 30403  99.1223 228.6398 0089518 323.2105  36.2941 14.07873695790622
Source of the keplerian elements: AFSPC